BEIDOU 8 (C08)

Last updated on Dec. 11, 2019, 4:29 a.m. UTC

1 37384U 11013A   19344.81784715 -.00000210  00000-0  10000-3 0  9991
2 37384  59.0136  63.5375 0046644 205.1177 223.3223  1.00258891 31811
UTC
Height (km)
Latitude
Longitude
Inclination
Orbital Period
UTC large
Height (km)
Speed (km/s)
/
Latitude / Longitude
Inclination (degrees)
Orbital Period (minutes)
Azimuth
Elevation
Range (km)
Doppler Factor
iOS Compass Heading
iOS Angle

Next 30 passes for location: Hong Kong

Rise time Rise Azimuth (degrees) Set time Set Azimuth (degrees) Duration Max altitude (degrees)

No matching passes for this satellites